Location: Newark
(33.6439°N, 114.9881°W)
Time: 09:16:16
(UTC+00:00)

SR - All Passes

Search period start: 20 July 2019 00:00
Search period end: 30 July 2019 00:00
Orbit: 580 x 876 km, 66.7° (Epoch: 20 July)

Date Brightness Start Highest point End Pass type
(mag) Time Alt. Az. Time Alt. Az. Time Alt. Az.
20 Jul - 03:33:17 10° S 03:37:17 43° ESE 03:41:24 10° NE visible
20 Jul - 05:17:07 10° W 05:19:33 15° NW 05:22:02 10° NNW visible
20 Jul - 12:17:39 10° NNE 12:21:08 17° NE 12:24:45 10° E visible
20 Jul - 13:58:12 10° NNW 14:03:31 62° WSW 14:09:09 10° SSE daylight
21 Jul - 02:45:09 10° SSE 02:47:56 17° ESE 02:50:46 10° ENE daylight
21 Jul - 04:25:49 10° WSW 04:29:37 32° WNW 04:33:34 10° N visible
21 Jul - 13:08:36 10° NNW 13:13:54 64° ENE 13:19:34 10° SE daylight
21 Jul - 14:52:36 10° WNW 14:55:32 15° WSW 14:58:33 10° SW daylight
22 Jul - 03:35:42 10° SSW 03:39:54 79° WNW 03:44:19 10° NNE visible
22 Jul - 12:19:25 10° N 12:24:09 32° ENE 12:29:10 10° ESE visible
22 Jul - 14:01:25 10° NW 14:06:10 31° WSW 14:11:09 10° S daylight
23 Jul - 02:46:29 10° S 02:50:25 39° ESE 02:54:29 10° NE daylight
23 Jul - 04:29:58 10° W 04:32:37 16° NW 04:35:20 10° NNW visible
23 Jul - 11:30:54 10° NNE 11:34:14 17° NE 11:37:43 10° E visible
23 Jul - 13:11:19 10° NNW 13:16:40 66° WSW 13:22:21 10° SSE daylight
24 Jul - 01:58:29 10° SE 02:01:04 16° ESE 02:03:43 10° ENE daylight
24 Jul - 03:38:51 10° SW 03:42:43 34° WNW 03:46:45 10° N visible
24 Jul - 12:21:44 10° NNW 12:27:03 60° ENE 12:32:42 10° SE daylight
24 Jul - 14:05:29 10° WNW 14:08:42 16° WSW 14:12:02 10° SW daylight
25 Jul - 02:48:48 10° SSW 02:53:01 85° WNW 02:57:27 10° NNE daylight
25 Jul - 11:32:36 10° N 11:37:17 30° ENE 11:42:14 10° ESE visible
25 Jul - 13:14:28 10° NW 13:19:19 33° WSW 13:24:26 10° S daylight
26 Jul - 01:59:40 10° S 02:03:33 36° ESE 02:07:33 10° NE daylight
26 Jul - 03:42:53 10° W 03:45:42 17° NW 03:48:38 10° N visible
26 Jul - 10:44:09 10° NNE 10:47:21 16° NE 10:50:39 10° E visible
26 Jul - 12:24:25 10° NNW 12:29:49 71° WSW 12:35:33 10° SSE daylight
27 Jul - 01:11:50 10° SE 01:14:14 15° ESE 01:16:40 10° ENE daylight
27 Jul - 02:51:53 10° SW 02:55:49 37° WNW 02:59:57 10° N daylight
27 Jul - 11:34:53 10° NNW 11:40:11 57° ENE 11:45:50 10° SE visible
27 Jul - 13:18:24 10° WNW 13:21:53 17° WSW 13:25:28 10° SW daylight
28 Jul - 02:01:55 10° SSW 02:06:09 88° ESE 02:10:35 10° NNE daylight
28 Jul - 10:45:47 10° N 10:50:25 29° ENE 10:55:17 10° ESE visible
28 Jul - 12:27:31 10° NW 12:32:29 36° WSW 12:37:42 10° S daylight
29 Jul - 01:12:52 10° S 01:16:40 34° ESE 01:20:38 10° NE daylight
29 Jul - 02:55:48 10° W 02:58:47 18° NW 03:01:54 10° N daylight
29 Jul - 09:57:25 10° NNE 10:00:27 15° NE 10:03:34 10° E visible
29 Jul - 11:37:32 10° NNW 11:42:59 76° WSW 11:48:45 10° SSE visible
